DateTimeUTC,F1_A11,F1_S11,BsB_S11,BsG_S11,BsR_S11,BbsB_S11,BbsG_S11,BbsR_S11,BaB_A11,BaG_A11,BaR_A11,Tu_S11,T_S11,Uu_S11,U_S11,P_S11,T1_A11
2021-10-18T14:00:00Z,00000200,21000000,,,,,,,0000.20,-000.26,0000.22,17.8,24.5,,00.0,0674.7,31.0
2021-10-18T14:01:00Z,00000200,21000000,,,,,,,0000.56,0000.89,0000.41,17.8,24.5,,00.0,0674.7,31.0
2021-10-18T14:02:00Z,00000200,21000000,,,,,,,0000.89,0000.93,0000.95,17.8,24.5,,00.0,0674.7,31.0
2021-10-18T14:03:00Z,00000200,61000000,,,,,,,0002.21,0001.94,0001.20,17.8,24.5,,00.0,0674.7,31.0
2021-10-18T14:04:00Z,00000200,41000000,0005.42,0004.34,0002.86,-000.06,0000.45,0000.51,0001.65,0001.63,0001.27,18.0,24.3,00.0,00.0,0675.8,31.0
2021-10-18T14:05:00Z,00000200,01000000,0006.38,0003.90,0002.75,0000.80,0000.75,0000.32,0001.94,0001.66,0000.92,18.1,24.3,00.0,00.0,0675.9,31.0
2021-10-18T14:06:00Z,00000200,01000000,0005.97,0003.67,0002.54,0001.32,0000.60,0000.40,0001.13,0000.99,0000.93,18.2,24.4,00.1,00.0,0675.9,31.0
2021-10-18T14:07:00Z,00000200,01000000,0005.34,0003.55,0002.39,0000.53,0000.55,0000.16,0001.65,0001.31,0000.88,18.2,24.4,00.1,00.1,0676.0,31.0
2021-10-18T14:08:00Z,00000200,01000000,0005.13,0003.87,0002.46,0000.87,0000.47,0000.54,0001.59,0001.53,0001.26,18.2,24.4,00.1,00.1,0676.0,31.0
2021-10-18T14:09:00Z,00000200,01000000,0004.97,0003.49,0002.45,0000.63,0000.28,0000.33,0001.09,0000.86,0000.72,18.1,24.3,00.1,00.1,0676.0,31.0
2021-10-18T14:10:00Z,00000200,01000000,0005.23,0003.99,0002.17,-000.15,0000.45,0000.28,0001.20,0001.10,0000.76,18.0,24.3,00.1,00.1,0676.0,31.0
2021-10-18T14:11:00Z,00000200,01000000,0005.69,0003.53,0002.39,0001.05,0000.69,0000.29,0001.20,0001.32,0000.40,18.0,24.3,00.1,00.1,0676.1,31.0
2021-10-18T14:12:00Z,00000200,01000000,0005.01,0003.96,0002.54,0000.24,0000.79,0000.50,0001.66,0001.23,0001.06,17.9,24.2,00.2,00.1,0676.1,31.0
2021-10-18T14:13:00Z,00000200,01000000,0005.48,0003.79,0002.43,0000.86,0000.49,0000.75,0000.97,0000.81,0001.06,17.9,24.2,00.2,00.1,0676.2,30.9
2021-10-18T14:14:00Z,00000200,01000000,0005.01,0003.44,0002.33,0001.20,0000.65,0000.67,0000.37,0000.39,0000.16,17.9,24.2,00.1,00.1,0676.2,30.9
2021-10-18T14:15:00Z,00000200,01000000,0006.07,0004.12,0002.71,0000.75,0000.58,0000.48,0001.17,0000.86,0000.68,17.8,24.1,00.1,00.1,0676.2,30.9
2021-10-18T14:16:00Z,00000200,01000000,0005.94,0004.30,0002.20,0000.70,0000.61,0000.50,0001.72,0001.69,0001.26,17.8,24.1,00.1,00.1,0676.3,30.9
2021-10-18T14:17:00Z,00000200,01000000,0005.79,0003.70,0002.20,0000.85,0000.54,0000.53,0001.27,0001.10,0000.77,17.8,24.1,00.2,00.1,0676.3,30.9
2021-10-18T14:18:00Z,00000200,01000000,0005.16,0003.63,0002.73,0000.49,0000.52,0000.81,0001.17,0001.08,0000.84,17.9,24.1,00.1,00.1,0676.4,31.0
2021-10-18T14:19:00Z,00000200,01000000,0005.60,0003.76,0002.80,0000.42,0000.62,0000.40,0000.73,0000.68,0000.99,18.0,24.2,00.1,00.0,0676.4,31.0
2021-10-18T14:20:00Z,00000200,01000000,0005.10,0003.56,0002.54,0000.36,0000.66,0000.31,0001.20,0000.69,0000.31,18.1,24.2,00.1,00.1,0676.4,31.0
2021-10-18T14:21:00Z,00000200,01000000,0004.94,0004.16,0002.65,-000.14,0000.85,0000.59,0000.87,0001.37,0000.69,18.1,24.3,00.0,00.0,0676.5,31.0
2021-10-18T14:22:00Z,00000200,01000000,0005.27,0003.68,0001.90,0001.00,0000.52,0000.12,0000.84,0000.60,0000.55,18.2,24.3,00.0,00.0,0676.5,31.0
2021-10-18T14:23:00Z,00000200,01000000,0005.08,0003.12,0002.26,0000.76,0000.36,0000.36,0000.90,0000.63,0000.77,18.3,24.3,,00.0,0676.5,31.0
2021-10-18T14:24:00Z,00000200,01000000,0005.96,0003.94,0002.30,0000.83,0000.46,0000.40,0001.01,0001.04,0000.35,18.3,24.4,00.0,00.0,0676.5,31.0
2021-10-18T14:25:00Z,00000200,01000000,0005.78,0003.68,0002.40,0000.91,0000.32,0000.50,0001.15,0001.02,0000.86,18.3,24.4,00.0,00.0,0676.5,31.0
2021-10-18T14:26:00Z,00000200,01000000,0004.63,0003.56,0002.35,0000.59,0000.37,0000.64,0001.60,0001.30,0001.05,18.2,24.3,00.0,00.0,0676.5,31.0
2021-10-18T14:27:00Z,00000200,01000000,0005.46,0003.37,0002.54,0000.69,0000.55,0000.39,0001.30,0000.95,0000.78,18.1,24.3,,00.0,0676.5,31.0
2021-10-18T14:28:00Z,00000200,01000000,0004.57,0003.25,0001.90,0000.99,0000.56,0000.52,0001.40,0001.48,0000.97,18.1,24.3,00.0,00.0,0676.6,31.0
2021-10-18T14:29:00Z,00000200,01000000,0005.02,0002.86,0001.81,0000.96,0000.45,0000.20,0001.22,0001.09,0000.83,18.0,24.2,00.0,00.0,0676.6,31.0
2021-10-18T14:30:00Z,00000200,01000000,0004.50,0003.49,0002.15,0001.14,0000.56,0000.23,0000.82,0000.74,0000.48,18.0,24.2,00.0,00.0,0676.6,30.9
2021-10-18T14:31:00Z,00000200,01000000,0004.54,0003.31,0002.15,0000.44,0000.59,0000.53,0001.39,0001.51,0001.24,18.0,24.2,00.0,00.0,0676.6,31.0
2021-10-18T14:32:00Z,00000200,01000000,0005.09,0003.12,0001.96,0000.32,0000.44,0000.16,0001.82,0001.35,0000.72,18.0,24.2,00.0,00.0,0676.6,30.9
2021-10-18T14:33:00Z,00000200,01000000,0004.18,0002.88,0001.80,0000.65,0000.68,0000.59,0001.39,0001.66,0000.97,18.0,24.2,00.1,00.1,0676.7,30.9
2021-10-18T14:34:00Z,00000200,01000000,0004.05,0002.56,0002.06,0000.93,0000.60,0000.65,0001.23,0001.08,0001.18,18.1,24.2,00.2,00.1,0676.7,31.0
2021-10-18T14:35:00Z,00000200,01000000,0004.04,0002.83,0001.91,0000.48,0000.29,0000.41,0001.19,0000.85,0000.88,18.2,24.3,00.2,00.1,0676.7,31.0
2021-10-18T14:36:00Z,00000200,01000000,0003.60,0002.73,0001.67,0000.82,0000.45,0000.24,0001.18,0001.35,0000.78,18.2,24.3,00.2,00.1,0676.7,31.0
2021-10-18T14:37:00Z,00000200,01000000,0004.75,0002.70,0001.81,0000.56,0000.51,0000.25,0000.97,0000.70,0000.40,18.3,24.4,00.2,00.1,0676.7,31.0
2021-10-18T14:38:00Z,00000200,01000000,0004.25,0002.93,0002.02,0000.31,0000.33,0000.51,0001.33,0000.47,0000.47,18.2,24.4,00.2,00.1,0676.7,31.0
2021-10-18T14:39:00Z,00000200,01000000,0004.29,0002.99,0001.97,0000.26,0000.49,0000.20,0001.26,0001.72,0000.89,18.2,24.3,00.2,00.1,0676.7,31.0
2021-10-18T14:40:00Z,00000200,01000000,0004.66,0003.16,0002.56,0000.70,0000.72,0000.64,0000.42,0000.32,0000.92,18.1,24.3,00.2,00.1,0676.7,31.0
2021-10-18T14:41:00Z,00000200,01000000,0004.77,0003.22,0002.47,0000.19,0000.37,0001.04,0001.10,0001.06,0000.32,18.1,24.3,00.1,00.1,0676.7,30.9
2021-10-18T14:42:00Z,00000200,01000000,0005.30,0003.44,0002.12,0001.08,0000.47,0000.49,0000.54,0000.39,0000.47,18.0,24.3,00.1,00.0,0676.7,31.0
2021-10-18T14:43:00Z,00000200,01000000,0006.05,0003.48,0002.17,0000.59,0000.76,0000.42,0001.20,0000.83,0000.72,17.9,24.2,00.0,00.0,0676.7,30.9
2021-10-18T14:44:00Z,00000200,01000000,0004.05,0002.66,0001.67,0000.55,0000.44,0000.11,0000.69,0000.79,0000.56,17.9,24.2,00.1,00.1,0676.7,30.9
2021-10-18T14:45:00Z,00000200,01000000,0004.79,0003.02,0002.06,0000.88,0000.46,0000.74,0000.96,0000.80,0000.57,17.8,24.2,00.0,00.0,0676.7,30.9
2021-10-18T14:46:00Z,00000200,01000000,0004.59,0002.63,0002.41,0000.67,0000.47,0000.42,0001.14,0001.28,0000.69,17.8,24.1,00.0,00.0,0676.7,30.9
2021-10-18T14:47:00Z,00000200,01000000,0004.61,0002.88,0001.93,0000.43,0000.74,0000.58,0001.34,0000.83,0000.99,17.8,24.1,00.0,00.0,0676.7,30.9
2021-10-18T14:48:00Z,00000200,01000000,0004.35,0002.89,0002.09,0000.61,0000.58,0000.38,0001.01,0001.46,0000.68,17.9,24.1,00.1,00.0,0676.7,30.9
2021-10-18T14:49:00Z,00000200,01010000,0004.64,0003.06,0002.20,0000.42,0000.62,0000.48,0000.99,0000.24,0000.68,18.0,24.2,00.1,00.0,0676.7,31.0
2021-10-18T14:50:00Z,00000200,01000000,0004.57,0003.17,0002.18,0000.93,0000.05,0000.49,0000.78,0001.45,0000.44,18.1,24.2,00.1,00.0,0676.8,31.0
2021-10-18T14:51:00Z,00000200,01000000,0004.22,0002.82,0001.74,0000.68,0000.56,0000.37,0001.25,0000.61,0001.01,18.1,24.3,00.0,00.0,0676.8,31.0
2021-10-18T14:52:00Z,00000200,01000000,0004.48,0003.17,0002.34,0001.06,0001.00,0000.40,0000.44,0000.79,0000.33,18.2,24.3,00.0,00.0,0676.8,31.0
2021-10-18T14:53:00Z,00000200,01000000,0003.95,0002.72,0002.07,0000.10,0000.41,0000.41,0000.68,0000.51,0000.52,18.3,24.3,00.0,00.0,0676.8,31.0
2021-10-18T14:54:00Z,00000200,01000000,0004.89,0002.38,0002.16,0000.60,0000.50,0000.48,0001.17,0001.03,0000.64,18.2,24.3,00.0,00.0,0676.9,31.0
2021-10-18T14:55:00Z,00000200,01000000,0004.34,0003.15,0001.87,0000.73,0000.38,0000.44,0001.08,0000.69,0000.60,18.2,24.3,00.0,00.0,0676.9,31.0
2021-10-18T14:56:00Z,00000200,01000000,0004.14,0002.99,0002.02,0001.53,0000.72,0000.53,0001.25,0001.37,0001.37,18.1,24.3,00.0,00.0,0677.0,31.0
2021-10-18T14:57:00Z,00000200,41000000,,,,,,,0000.33,0000.33,-000.35,18.2,24.3,,00.0,0677.0,31.0
2021-10-18T14:58:00Z,00000200,61000000,,,,,,,-000.06,-000.48,-000.26,17.8,24.4,,00.0,0675.9,31.0
2021-10-18T14:59:00Z,00000200,21000000,,,,,,,-000.16,0000.21,0000.39,17.8,24.5,,00.0,0675.9,30.9
